{"data":{"norad_id":65133,"intl_designator":"2025-171B","name":"KUIPER-00088","alt_names":[],"object_type":"PAYLOAD","status":"ACTIVE","operator":null,"country":"US","launch_date":"2025-08-11","launch_site_code":"AFETR","launch_vehicle":null,"mission":null,"orbit_class":"UNKNOWN","rcs_meters":null,"size_class":null,"mass_kg":null,"dimensions":null,"purposes":[],"wikipedia_slug":null,"has_3d_model":false,"image_url":null,"decayed_at":null,"tle_current":{"epoch":"2026-05-25T03:31:29.853120Z","epoch_age_seconds":72799,"freshness":"FRESH","line1":"1 65133U 25171B   26145.14687330  .00002067  00000+0  30001-3 0  9995","line2":"2 65133  51.8980 187.4844 0000256  53.3639 306.7347 14.79934265 44119","mean_motion":14.79934265,"eccentricity":2.56e-5,"inclination_deg":51.898,"raan_deg":187.4844,"arg_perigee_deg":53.3639,"mean_anomaly_deg":306.7347,"bstar":0.00030001,"rev_number":4411,"period_min":97.301619001301,"perigee_km":629.35223956923,"apogee_km":629.71103220339,"semimajor_km":7007.6686358863,"source":"CELESTRAK","updated_at":"2026-05-25T13:38:05.140706Z"}}}